{"data":{"norad_id":69762,"intl_designator":"2026-150Z","name":"STARLINK-38019","alt_names":[],"object_type":"PAYLOAD","status":"ACTIVE","operator":null,"country":"US","launch_date":"2026-07-02","launch_site_code":"AFWTR","launch_vehicle":null,"mission":null,"orbit_class":"UNKNOWN","rcs_meters":null,"size_class":null,"mass_kg":null,"dimensions":null,"purposes":["comms"],"wikipedia_slug":null,"has_3d_model":false,"image_url":null,"decayed_at":null,"tle_current":{"epoch":"2026-09-20T04:00:03.000096Z","epoch_age_seconds":46615,"freshness":"FRESH","line1":"1 69762U 26150Z   26263.16670139 -.00038394  00000+0 -70704-3 0  9995","line2":"2 69762  97.2852 104.7371 0001489  91.0035  52.7962 15.49215939  5945","mean_motion":15.49215939,"eccentricity":0.0001489,"inclination_deg":97.2852,"raan_deg":104.7371,"arg_perigee_deg":91.0035,"mean_anomaly_deg":52.7962,"bstar":-0.00070704,"rev_number":594,"period_min":92.950244297738,"perigee_km":418.00637445532,"apogee_km":420.03056735456,"semimajor_km":6797.1554709049,"source":"CELESTRAK","updated_at":"2026-09-20T09:00:44.290867Z"}}}